SQ6XL-13 Weather Reports


Display with metric or nautical units.
time (UTC)temp
F
wind
direction
speed
MPH
gust
MPH
rain 1hr
in
rain 24hr
in
rain mn
in
humidity
%
barometer
mb
20260905160445 67 0.0 0.0 0.00 0.00 0.00 54 1018.2
20260905155555 67 0.0 0.0 0.00 0.00 0.00 53 1018.2
20260905154749 67 0.0 0.0 0.00 0.00 0.00 54 1018.4
20260905153839 67 0.0 0.0 0.00 0.00 0.00 54 1018.2
20260905153019 67 0.0 0.0 0.00 0.00 0.00 54 1018.2
20260905152029 68 0.0 0.0 0.00 0.00 0.00 53 1018.2
20260905151119 68 0.0 0.0 0.00 0.00 0.00 53 1018.2
20260905150314 68 0.0 0.0 0.00 0.00 0.00 54 1018.1
20260905145430 68 0.0 0.0 0.00 0.00 0.00 57 1018.1
20260905144509 68 0.0 0.0 0.00 0.00 0.00 55 1018.1
20260905143535 68 0.0 0.0 0.00 0.00 0.00 56 1018.1
20260905142609 68 0.0 0.0 0.00 0.00 0.00 56 1018.1
20260905141639 69 0.0 0.0 0.00 0.00 0.00 55 1018.1
20260905140719 68 0.0 0.0 0.00 0.00 0.00 54 1018.0
20260905135735 68 0.0 0.0 0.00 0.00 0.00 57 1018.0
20260905134834 68 0.0 0.0 0.00 0.00 0.00 56 1017.9
20260905134025 69 0.0 0.0 0.00 0.00 0.00 54 1018.1
20260905133124 69 0.0 0.0 0.00 0.00 0.00 54 1018.0
20260905132205 70 0.0 0.0 0.00 0.00 0.00 54 1017.9
20260905131259 70 0.0 0.0 0.00 0.00 0.00 57 1018.0
20260905130359 68 0.0 0.0 0.00 0.00 0.00 60 1018.0
20260905125434 68 0.0 0.0 0.00 0.00 0.00 57 1018.1
20260905124609 69 0.0 0.0 0.00 0.00 0.00 57 1018.1
20260905123709 69 0.0 0.0 0.00 0.00 0.00 57 1018.2
20260905122825 69 0.0 0.0 0.00 0.00 0.00 58 1018.3
20260905121859 70 0.0 0.0 0.00 0.00 0.00 55 1018.3
20260905120959 69 0.0 0.0 0.00 0.00 0.00 53 1018.3
20260905120015 71 0.0 0.0 0.00 0.00 0.00 54 1018.3
20260905115019 70 0.0 0.0 0.00 0.00 0.00 56 1018.1
20260905114019 70 0.0 0.0 0.00 0.00 0.00 56 1018.2
20260905113114 70 0.0 0.0 0.00 0.00 0.00 58 1018.2
20260905112224 70 0.0 0.0 0.00 0.00 0.00 59 1018.1
20260905111225 69 0.0 0.0 0.00 0.00 0.00 59 1018.1
20260905110309 67 0.0 0.0 0.00 0.00 0.00 61 1018.2
20260905105441 68 0.0 0.0 0.00 0.00 0.00 62 1018.0
20260905104535 67 0.0 0.0 0.00 0.00 0.00 63 1018.1
20260905103635 67 0.0 0.0 0.00 0.00 0.00 63 1018.1
20260905102709 68 0.0 0.0 0.00 0.00 0.00 66 1018.1
20260905101734 67 0.0 0.0 0.00 0.00 0.00 67 1018.0
20260905100749 65 0.0 0.0 0.00 0.00 0.00 68 1018.0
20260905095904 65 0.0 0.0 0.00 0.00 0.00 71 1018.1
20260905094944 63 0.0 0.0 0.00 0.00 0.00 74 1018.3
20260905093944 63 0.0 0.0 0.00 0.00 0.00 74 1018.3
20260905093034 63 0.0 0.0 0.00 0.00 0.00 74 1018.3
20260905092135 63 0.0 0.0 0.00 0.00 0.00 73 1018.3
20260905091314 63 0.0 0.0 0.00 0.00 0.00 73 1018.2
20260905090455 64 0.0 0.0 0.00 0.00 0.00 74 1018.2
20260905085559 63 0.0 0.0 0.00 0.00 0.00 74 1018.2
20260905084650 63 0.0 0.0 0.00 0.00 0.00 75 1018.2
20260905083700 62 0.0 0.0 0.00 0.00 0.00 76 1018.0
20260905082859 62 0.0 0.0 0.00 0.00 0.00 74 1017.9
20260905081949 62 0.0 0.0 0.00 0.00 0.00 72 1017.9
20260905081144 62 0.0 0.0 0.00 0.00 0.00 72 1017.8
20260905080209 62 0.0 0.0 0.00 0.00 0.00 72 1017.6
20260905075215 63 0.0 0.0 0.00 0.00 0.00 76 1017.7
20260905074219 63 0.0 0.0 0.00 0.00 0.00 79 1017.5
20260905073249 62 0.0 0.0 0.00 0.00 0.00 78 1017.5
20260905072324 63 0.0 0.0 0.00 0.00 0.00 79 1017.4
20260905071500 62 0.0 0.0 0.00 0.00 0.00 81 1017.5
20260905070655 62 0.0 0.0 0.00 0.00 0.00 82 1017.3
20260905065743 62 0.0 0.0 0.00 0.00 0.00 84 1017.3
20260905064814 61 0.0 0.0 0.00 0.00 0.00 85 1017.1
20260905063904 61 0.0 0.0 0.00 0.00 0.00 86 1017.1
20260905062954 61 0.0 0.0 0.00 0.00 0.00 87 1017.1
20260905061954 60 0.0 0.0 0.00 0.00 0.00 88 1017.0
20260905061145 60 0.0 0.0 0.00 0.00 0.00 89 1016.9
20260905060234 59 0.0 0.0 0.00 0.00 0.00 91 1016.9
20260905055424 58 0.0 0.0 0.00 0.00 0.00 92 1016.9
20260905054624 58 0.0 0.0 0.00 0.00 0.00 91 1016.8
20260905053749 58 0.0 0.0 0.00 0.00 0.00 91 1016.7
20260905052844 58 0.0 0.0 0.00 0.00 0.00 92 1016.3
20260905051930 58 0.0 0.0 0.00 0.00 0.00 92 1016.4
20260905051004 58 0.0 0.0 0.00 0.00 0.00 92 1016.4
20260905050139 58 0.0 0.0 0.00 0.00 0.00 92 1016.4
20260905045334 58 0.0 0.0 0.00 0.00 0.00 92 1016.3
20260905044445 58 0.0 0.0 0.00 0.00 0.00 92 1016.4
20260905043629 58 0.0 0.0 0.00 0.00 0.00 92 1016.1
20260905042644 58 0.0 0.0 0.00 0.00 0.00 92 1016.1
20260905041645 58 0.0 0.0 0.00 0.00 0.00 92 1015.9
20260905040729 58 0.0 0.0 0.00 0.00 0.00 92 1016.0
20260905035744 58 0.0 0.0 0.00 0.00 0.00 92 1015.9
20260905034924 58 0.0 0.0 0.00 0.00 0.00 90 1015.8
20260905034119 58 0.0 0.0 0.00 0.00 0.00 90 1015.8
20260905033259 58 0.0 0.0 0.00 0.00 0.00 90 1015.7
20260905032314 58 0.0 0.0 0.00 0.00 0.00 89 1015.7
20260905031349 58 0.0 0.0 0.00 0.00 0.00 89 1015.4
20260905030509 58 0.0 0.0 0.00 0.00 0.00 87 1015.6
20260905025630 58 0.0 0.0 0.00 0.00 0.00 86 1015.3
20260905024815 58 0.0 0.0 0.00 0.00 0.00 86 1014.9
20260905023945 58 0.0 0.0 0.00 0.00 0.00 87 1015.1
20260905023009 58 0.0 0.0 0.00 0.00 0.00 88 1014.9
20260905022049 58 0.0 0.0 0.00 0.00 0.00 90 1014.3
20260905021237 58 0.0 0.0 0.00 0.00 0.00 92 1014.3
20260905020414 58 0.0 0.0 0.00 0.00 0.00 92 1014.7
20260905015515 58 0.0 0.0 0.00 0.00 0.00 93 1014.6
20260905014640 58 0.0 0.0 0.00 0.00 0.00 93 1014.6
20260905013639 58 0.0 0.0 0.00 0.00 0.00 92 1014.5
20260905012715 58 0.0 0.0 0.00 0.00 0.00 92 1014.4
20260905011805 59 0.0 0.0 0.00 0.00 0.00 91 1014.7
20260905010814 60 0.0 0.0 0.00 0.00 0.00 91 1015.1
20260905005930 60 0.0 0.0 0.00 0.00 0.00 92 1014.8
20260905005105 60 0.0 0.0 0.00 0.00 0.00 92 1014.8
20260905004204 60 0.0 0.0 0.02 0.00 0.00 92 1014.9
20260905003249 61 0.0 0.0 0.01 0.00 0.00 92 1014.7
20260905002340 61 0.0 0.0 0.00 0.00 0.00 92 1014.5
20260905001439 61 0.0 0.0 0.00 0.00 0.00 91 1014.4
20260905000614 61 0.0 0.0 0.00 0.00 0.00 91 1014.2
20260904235704 61 0.0 0.0 0.00 0.00 0.00 89 1013.7
20260904234839 61 0.0 0.0 0.00 0.00 0.00 89 1013.8
20260904233959 62 0.0 0.0 0.00 0.00 0.00 88 1014.1
20260904233144 62 0.0 0.0 0.00 0.00 0.00 87 1013.9
20260904232254 62 0.0 0.0 0.00 0.00 0.00 85 1013.6
20260904231340 63 0.0 0.0 0.00 0.00 0.00 83 1013.1
20260904230510 63 0.0 0.0 0.00 0.00 0.00 82 1012.9
20260904225619 63 0.0 0.0 0.00 0.00 0.00 82 1013.1
20260904224704 64 0.0 0.0 0.00 0.00 0.00 81 1013.1
20260904223800 64 0.0 0.0 0.00 0.00 0.00 79 1013.2
20260904222954 64 0.0 0.0 0.00 0.00 0.00 78 1013.0
20260904222125 64 0.0 0.0 0.00 0.00 0.00 78 1013.2
20260904221219 64 0.0 0.0 0.00 0.00 0.00 78 1012.8
20260904220244 64 0.0 0.0 0.00 0.00 0.00 77 1012.7
20260904215334 64 0.0 0.0 0.00 0.00 0.00 77 1012.7
20260904214514 64 0.0 0.0 0.00 0.00 0.00 76 1012.6
20260904213550 64 0.0 0.0 0.00 0.00 0.00 76 1012.8
20260904212654 65 0.0 0.0 0.00 0.00 0.00 75 1012.5
20260904211755 65 0.0 0.0 0.00 0.00 0.00 75 1012.6
20260904210834 65 0.0 0.0 0.00 0.00 0.00 74 1012.5
20260904210004 66 0.0 0.0 0.00 0.00 0.00 73 1012.4
20260904205149 66 0.0 0.0 0.00 0.00 0.00 72 1012.5
20260904204149 67 0.0 0.0 0.00 0.00 0.00 70 1012.5
20260904203249 67 0.0 0.0 0.00 0.00 0.00 68 1012.8
20260904202344 68 0.0 0.0 0.00 0.00 0.00 67 1012.6
20260904201504 69 0.0 0.0 0.00 0.00 0.00 67 1012.3
20260904200634 69 0.0 0.0 0.00 0.00 0.00 67 1012.4
20260904195824 69 0.0 0.0 0.00 0.00 0.00 67 1012.5
20260904194935 69 0.0 0.0 0.00 0.00 0.00 71 1012.3
20260904194104 69 0.0 0.0 0.00 0.00 0.00 72 1012.1
20260904193209 69 0.0 0.0 0.00 0.00 0.00 74 1011.7
20260904192330 72 0.0 0.0 0.00 0.00 0.00 71 1011.7
20260904191500 76 0.0 0.0 0.00 0.00 0.00 66 1011.4
20260904190529 75 0.0 0.0 0.00 0.00 0.00 66 1010.5
20260904185714 75 0.0 0.0 0.00 0.00 0.00 66 1010.3
20260904184844 75 0.0 0.0 0.00 0.00 0.00 66 1010.3
20260904184000 75 0.0 0.0 0.00 0.00 0.00 67 1010.2
20260904183019 75 0.0 0.0 0.00 0.00 0.00 67 1010.4
20260904182044 75 0.0 0.0 0.00 0.00 0.00 67 1010.2
20260904181214 75 0.0 0.0 0.00 0.00 0.00 67 1010.1
20260904180335 74 0.0 0.0 0.00 0.00 0.00 68 1010.0
20260904175354 74 0.0 0.0 0.00 0.00 0.00 69 1010.4
20260904174405 74 0.0 0.0 0.00 0.00 0.00 69 1010.6
20260904173600 74 0.0 0.0 0.00 0.00 0.00 69 1010.6
20260904172709 74 0.0 0.0 0.00 0.00 0.00 70 1010.9
20260904171716 74 0.0 0.0 0.00 0.00 0.00 70 1010.7
20260904170819 74 0.0 0.0 0.00 0.00 0.00 70 1010.7
20260904165925 74 0.0 0.0 0.00 0.00 0.00 70 1010.9
20260904165029 74 0.0 0.0 0.00 0.00 0.00 70 1010.8
20260904164039 74 0.0 0.0 0.00 0.00 0.00 70 1010.9
20260904163235 75 0.0 0.0 0.00 0.00 0.00 69 1010.8
20260904162334 75 0.0 0.0 0.00 0.00 0.00 69 1010.7
20260904161409 75 0.0 0.0 0.00 0.00 0.00 69 1010.8